Theta_e
335 335 335 334 334 334 335 333 327 322 321 321 323 324 323 323 323 321 320 323 325 327 328 327 326 325 326 328 329 329 329 330 329 327 327 327 328 328 327 327 325 324 324 324 325 324 323 324 325 324 322 320 321 318 313 318 321 320 323 321 322 324 325 327 326 323 319 317 316 315 314 312 308 305 302 301 299 298 298 299 301 304 308 312 314
335 335 335 335 334 334 335 334 329 323 321 321 322 323 322 323 324 323 322 324 326 327 328 328 327 327 328 328 329 329 329 330 329 327 327 328 328 328 327 327 326 324 323 323 323 324 324 324 324 324 324 322 320 317 311 314 319 320 323 322 321 324 325 326 326 323 319 317 316 315 314 311 308 304 302 301 299 298 298 298 300 302 305 310 313
335 335 334 334 334 335 335 334 331 326 323 322 323 323 322 323 324 324 324 325 327 327 328 328 329 329 329 329 329 329 329 330 329 328 328 328 328 328 328 327 327 324 323 323 323 324 326 325 324 323 324 323 320 318 313 308 311 317 323 323 320 324 325 325 327 325 320 317 317 315 314 312 308 305 302 301 299 298 298 298 298 300 304 309 312
335 335 334 334 334 334 335 335 332 328 324 325 326 325 325 325 325 326 327 327 327 327 328 330 330 330 330 329 329 329 329 329 329 328 328 328 329 328 328 328 328 325 323 323 324 325 327 327 327 326 324 323 321 322 318 312 309 310 319 322 320 323 325 325 327 326 321 317 316 316 314 312 308 304 302 300 299 298 297 297 297 299 303 307 310
335 335 334 334 334 334 334 334 333 330 327 327 329 329 329 329 329 330 331 330 329 329 329 331 331 331 330 330 329 329 330 330 329 328 328 328 328 329 329 329 328 327 325 324 324 325 326 327 327 326 325 323 323 323 322 320 316 310 315 320 320 322 325 326 326 325 323 318 316 316 314 312 308 304 302 301 299 297 297 297 298 299 301 303 306
335 334 334 334 334 334 334 334 334 332 330 329 330 331 331 331 331 331 331 331 331 330 331 331 331 332 331 330 329 329 330 330 329 328 328 328 329 329 329 329 329 329 327 325 325 325 325 326 326 325 324 323 323 323 322 322 320 317 316 318 320 321 323 325 326 326 324 319 316 316 314 313 309 305 302 301 299 297 297 297 298 300 301 300 302
335 334 333 333 334 334 334 334 334 333 332 332 332 331 330 330 330 331 330 331 331 331 331 332 332 332 331 330 329 330 329 329 329 328 328 329 328 329 329 328 329 329 328 327 326 326 325 326 326 325 324 324 323 323 323 322 321 320 318 316 318 320 322 325 326 326 325 321 318 317 315 313 309 305 303 301 299 297 297 297 298 300 300 300 300
333 332 333 333 333 333 333 333 334 334 334 333 332 332 331 329 328 329 329 331 331 331 331 332 332 332 330 329 328 329 329 329 329 329 329 329 329 329 328 329 329 330 329 328 327 327 326 325 326 325 324 324 324 324 324 324 323 321 319 316 315 316 319 324 326 326 327 323 321 319 316 314 310 306 303 301 299 297 296 297 299 298 298 299 300
328 329 330 332 333 331 330 332 333 334 334 333 332 333 333 331 329 329 329 330 331 331 332 332 331 330 328 327 328 329 329 328 329 329 329 329 329 329 329 329 329 330 329 328 328 327 327 326 325 325 325 325 325 324 324 325 325 323 323 320 316 312 313 321 326 326 327 325 321 320 318 316 312 307 303 302 299 298 297 297 298 297 296 298 300
328 327 327 329 330 329 328 330 331 332 333 333 333 333 333 332 331 331 330 331 331 332 332 332 332 329 327 326 327 328 328 327 327 328 328 329 330 329 330 329 329 330 330 329 329 329 327 326 325 325 325 325 325 325 324 325 325 325 325 323 320 315 310 315 324 327 327 325 322 320 320 317 313 308 304 302 300 298 297 297 298 297 296 296 298
327 326 326 326 326 325 325 327 329 331 332 332 332 331 331 332 331 331 331 331 332 332 333 333 332 330 328 326 325 325 326 325 326 325 326 328 329 330 330 330 330 330 330 330 330 329 328 327 326 325 325 325 325 325 324 325 326 325 326 325 322 320 315 313 321 327 327 326 323 321 321 317 314 311 305 303 301 298 297 299 299 297 296 296 297
324 324 325 325 325 325 325 325 326 329 331 331 331 330 330 331 330 330 331 331 332 332 332 333 334 332 330 328 327 326 325 325 325 324 325 326 329 331 331 330 330 330 330 330 330 330 329 328 327 326 325 325 325 325 325 324 325 325 325 326 325 323 322 318 318 326 328 326 325 322 321 319 315 312 307 303 301 299 299 299 300 298 296 296 296
322 322 322 324 324 325 325 325 326 328 327 326 327 329 329 329 329 330 332 331 331 331 330 331 332 332 332 331 329 328 328 328 327 325 325 327 329 330 331 330 330 330 331 331 330 330 330 329 328 326 326 326 325 324 325 324 325 325 324 325 326 325 325 322 319 324 328 327 326 322 321 319 316 313 309 304 302 302 301 299 299 297 296 296 296
320 320 320 322 323 323 324 326 326 326 325 325 326 326 327 327 328 328 329 329 330 331 331 331 331 329 330 330 331 331 330 330 329 328 326 327 330 331 331 330 330 329 330 331 331 330 330 330 329 328 327 326 326 325 325 325 324 325 324 324 326 325 325 324 321 323 328 327 326 324 320 319 318 315 311 306 303 304 302 298 298 297 296 296 295
319 320 320 321 322 322 323 324 325 324 325 325 324 324 324 326 327 327 327 327 328 328 329 330 330 329 328 329 332 333 333 331 329 330 328 327 328 330 330 329 329 329 330 331 330 330 330 330 329 329 328 327 326 326 325 325 324 325 325 324 324 325 325 325 323 323 327 328 327 326 322 320 319 317 314 308 304 306 304 298 297 297 295 295 295
318 319 320 321 322 322 323 323 323 323 323 323 323 322 322 323 325 327 327 327 327 327 327 328 328 328 328 329 329 330 334 332 327 328 328 327 327 327 327 327 328 328 329 329 329 330 330 330 330 329 329 328 327 327 326 325 325 324 325 324 324 324 324 324 324 323 326 328 327 327 325 322 320 317 316 311 306 307 306 299 296 297 295 295 295
317 318 319 320 321 322 322 322 322 322 322 322 322 321 321 321 322 323 325 327 328 327 328 328 327 326 327 329 329 330 333 330 327 329 328 326 326 326 325 325 325 326 326 327 328 328 328 328 329 329 329 329 328 328 326 326 325 325 325 325 324 325 324 323 323 322 324 328 327 328 327 324 322 319 317 314 308 308 308 301 296 296 295 295 294
316 318 318 318 319 320 320 320 320 321 321 321 321 321 321 320 320 320 321 323 325 327 328 327 326 327 327 329 329 330 331 329 328 332 330 328 328 326 326 325 325 325 324 325 325 326 327 327 328 328 328 329 328 328 327 326 326 325 325 325 325 325 325 324 323 321 322 325 327 327 328 326 323 320 318 316 312 310 309 303 297 296 295 295 294
314 315 316 317 318 318 318 318 318 319 320 320 320 319 319 319 319 318 319 319 321 323 324 324 325 326 327 327 328 328 329 329 329 331 331 330 329 327 328 327 327 327 325 325 325 324 325 325 326 327 327 327 328 327 327 327 326 326 325 325 325 325 325 324 324 322 321 323 326 327 328 327 324 321 318 318 315 312 309 304 299 296 296 295 294
312 312 313 315 316 315 315 315 316 317 317 318 318 318 318 318 318 318 318 318 318 318 319 320 322 323 324 325 326 327 328 328 328 329 330 331 329 329 329 328 328 328 327 327 326 326 326 325 325 326 326 326 326 327 327 327 327 326 325 325 325 325 326 325 325 324 321 321 324 326 327 328 326 323 319 318 317 314 310 305 301 297 297 296 295
312 310 309 310 311 310 309 309 310 311 312 313 313 315 315 316 316 316 316 315 315 315 316 317 318 318 320 322 323 325 327 327 327 328 329 330 329 329 329 329 329 329 328 328 328 328 327 326 326 325 325 325 325 326 326 326 327 326 326 326 326 325 326 326 325 325 323 321 321 323 326 328 327 324 321 319 318 315 311 307 303 299 298 298 297
311 310 308 307 306 306 306 305 306 306 307 308 308 309 311 312 313 313 312 312 311 312 313 314 315 316 317 318 320 322 324 326 327 327 328 329 329 329 328 328 329 329 328 328 328 328 328 328 327 326 326 325 325 326 326 326 326 326 326 326 326 326 326 326 326 325 325 323 320 320 323 327 328 326 323 320 319 317 313 310 307 301 301 302 300
311 311 309 308 308 307 307 307 306 306 306 307 308 310 311 312 312 311 310 309 309 309 310 311 312 313 314 316 317 318 320 322 323 324 326 328 328 328 328 328 328 328 328 328 328 328 328 328 328 328 327 326 326 326 326 326 326 326 326 326 325 326 326 326 327 326 325 325 323 319 320 324 327 327 325 322 320 319 316 313 311 306 304 306 305
312 313 311 310 311 311 310 309 309 309 308 308 310 311 310 310 309 308 308 307 308 308 308 308 309 310 312 313 314 315 316 317 318 319 322 324 326 327 327 327 328 328 327 327 328 327 328 328 328 328 328 327 327 326 326 326 326 326 326 326 326 326 326 326 326 327 326 325 324 322 319 321 326 327 326 324 321 319 318 316 314 311 307 309 310
311 312 312 311 313 314 313 313 313 311 310 309 310 309 308 308 308 308 307 307 307 307 307 307 307 308 309 310 311 312 313 313 314 316 317 319 322 324 325 325 326 327 327 327 327 327 327 327 328 328 327 327 328 327 327 326 326 326 326 326 326 325 326 326 326 326 326 326 325 324 321 319 323 327 327 325 323 320 319 317 315 312 309 309 312
308 309 311 312 313 314 315 314 314 312 310 310 309 307 306 308 308 308 308 307 307 307 307 307 306 307 307 307 308 309 310 311 312 313 314 316 319 321 322 323 324 325 326 326 327 327 327 327 327 328 328 328 327 327 327 326 326 326 326 326 326 326 326 326 326 326 326 327 325 325 324 319 319 325 327 325 324 322 319 317 314 311 308 308 311
309 310 312 313 313 314 315 314 313 311 310 309 307 306 306 308 308 308 308 308 307 307 306 306 306 306 306 306 306 307 307 308 310 311 312 314 316 318 319 321 323 324 325 325 326 326 327 326 327 327 328 328 327 327 326 326 325 325 325 325 325 326 326 325 326 326 326 327 326 325 325 321 317 321 325 326 325 323 321 319 316 311 307 307 310
310 312 313 314 314 314 314 313 312 311 309 307 306 306 306 307 308 308 307 307 307 306 306 306 306 305 305 305 305 306 306 306 307 309 310 312 314 315 317 320 321 323 324 325 326 326 326 326 326 327 327 328 328 327 327 326 326 325 325 325 325 325 326 326 326 326 326 326 327 326 325 324 319 318 324 326 325 324 322 320 318 313 308 307 310
311 312 313 314 314 313 312 311 311 309 307 306 306 306 306 306 306 306 307 307 306 306 306 306 305 305 305 305 305 305 305 305 306 307 308 310 311 313 315 317 319 321 323 323 325 326 325 325 326 325 325 326 327 327 327 326 326 326 326 326 325 326 326 326 326 326 326 326 327 327 326 326 323 319 323 326 325 324 323 321 320 317 310 306 308
311 313 313 313 313 312 311 309 308 307 306 306 306 307 306 306 306 305 306 306 305 305 305 305 305 304 304 304 305 305 305 305 305 305 306 307 309 310 311 313 315 318 321 322 323 324 324 324 324 324 324 325 325 326 326 326 326 326 326 326 325 325 325 325 326 325 326 326 326 327 326 326 325 321 322 325 326 324 323 322 320 319 315 308 308
311 313 313 313 312 311 309 308 307 307 306 307 307 307 306 306 306 306 305 305 305 305 305 304 304 304 304 304 304 304 304 304 304 305 305 306 307 308 309 310 311 313 317 319 321 323 324 324 324 324 324 324 324 325 326 326 326 326 326 326 326 326 325 324 325 325 326 326 326 327 326 326 325 323 321 324 325 324 323 323 320 320 320 314 309
312 313 313 313 311 309 308 307 307 307 307 307 307 307 306 306 306 306 305 305 305 305 305 304 304 304 304 304 304 304 304 304 304 304 305 305 306 306 307 308 309 311 314 316 319 320 321 323 324 324 324 324 324 324 325 326 326 326 326 326 326 326 325 324 324 324 325 325 326 327 326 326 326 324 322 323 324 324 323 323 321 320 321 318 312
313 313 314 312 309 308 308 307 307 307 308 308 307 307 306 306 306 305 305 305 305 304 305 305 304 304 304 304 304 304 304 304 304 304 304 305 305 305 305 306 307 309 312 314 316 317 317 319 321 322 322 324 324 324 325 325 324 325 326 326 326 326 325 325 325 324 324 324 325 327 326 326 326 324 323 322 323 324 323 323 322 320 320 320 315
314 314 313 310 309 308 308 307 307 308 308 308 307 306 306 305 305 305 305 305 305 305 304 305 305 304 304 303 303 303 304 304 304 304 304 304 304 304 304 304 305 307 309 312 314 315 316 316 317 319 319 321 323 325 324 324 323 323 324 325 326 326 326 326 325 325 324 324 324 325 325 325 326 325 323 323 324 323 322 323 323 320 319 320 318
314 313 311 309 309 309 308 308 308 308 308 307 307 306 305 305 305 304 304 304 304 304 304 304 304 304 304 303 303 303 303 304 304 304 304 304 303 303 304 304 305 306 307 309 312 314 314 315 315 316 318 319 321 322 323 324 324 323 324 324 325 326 326 326 326 326 325 324 324 324 325 325 325 325 324 323 324 324 322 323 323 321 319 319 319
313 311 309 309 309 309 308 308 308 308 307 306 306 305 305 304 304 304 304 304 304 303 304 304 304 304 304 304 303 303 303 303 303 303 303 303 303 303 303 304 305 305 305 307 309 309 309 310 311 312 314 315 316 318 320 323 324 325 324 325 325 326 326 326 326 326 325 325 324 323 323 324 325 325 324 323 324 324 323 322 322 321 320 319 319
312 310 309 310 309 309 309 309 308 307 306 305 305 304 304 303 304 303 303 303 303 303 303 303 303 303 304 303 303 303 303 302 303 303 303 303 303 303 303 303 303 303 304 304 305 305 305 307 308 308 310 311 313 315 318 320 323 324 325 325 325 325 326 326 326 326 326 325 324 322 321 322 324 325 324 323 323 324 323 323 322 321 320 319 319
311 310 310 310 309 309 309 308 307 306 305 304 304 303 303 303 303 302 302 302 301 301 301 301 301 302 302 303 302 302 303 303 303 303 303 303 303 303 303 303 303 303 303 304 303 303 304 305 305 306 307 308 310 313 315 317 319 322 324 325 325 325 325 325 325 325 325 325 325 323 321 321 323 324 323 322 323 323 323 323 322 321 320 320 319
310 310 310 310 310 309 308 307 306 305 304 304 303 303 302 302 302 301 301 300 300 300 299 299 299 299 300 300 301 301 302 302 302 302 302 303 303 303 303 303 303 303 303 303 303 303 303 303 304 305 305 306 308 310 312 314 316 320 323 323 324 324 324 324 324 325 325 324 324 323 321 320 321 322 323 322 322 323 323 323 322 321 320 320 319
310 310 310 310 309 308 307 306 305 304 303 303 302 302 301 300 300 300 299 299 299 299 299 299 298 299 299 299 299 299 299 300 301 301 302 302 302 303 303 303 302 302 302 302 302 302 302 303 303 303 304 305 306 308 310 312 314 318 320 321 322 322 322 323 322 323 323 322 322 321 320 319 319 320 321 321 321 323 323 323 322 321 321 320 319
310 310 310 309 308 307 306 304 304 303 302 302 301 300 300 299 299 299 298 298 299 299 299 299 299 298 298 298 298 298 298 298 299 299 300 300 301 301 301 301 301 301 301 301 301 302 302 302 302 303 303 304 305 307 308 310 312 315 317 318 319 321 321 321 320 321 321 320 320 319 319 319 318 318 319 319 321 322 323 323 321 321 321 320 319
310 310 309 308 307 306 305 303 303 302 302 301 300 299 299 298 298 298 298 298 298 298 298 298 298 298 298 298 298 298 298 298 298 298 298 298 298 299 299 300 300 300 300 300 300 300 301 301 301 302 302 303 304 305 306 308 309 311 313 315 317 318 318 317 317 319 320 319 318 318 319 319 318 317 317 319 320 321 322 323 321 320 320 320 319
310 310 309 307 306 305 304 303 302 302 301 300 299 298 297 296 295 295 296 297 297 297 298 297 297 297 297 297 297 297 297 298 298 298 297 297 297 297 297 298 298 299 299 299 300 300 300 300 300 300 301 302 302 303 305 306 307 309 311 313 315 316 315 314 315 317 319 319 318 316 317 318 317 316 317 318 319 320 321 322 321 320 319 319 319
310 309 308 306 305 304 303 302 302 301 300 299 298 296 295 294 293 293 294 295 295 296 296 296 296 296 296 296 296 296 296 296 297 297 297 297 297 297 297 297 297 297 298 298 299 299 299 300 300 300 300 300 301 302 303 305 306 307 309 311 313 315 315 313 314 316 317 317 316 314 315 316 315 315 316 317 318 318 320 320 320 319 319 319 319
309 308 306 305 304 303 302 301 301 300 298 297 296 294 293 293 293 293 293 293 294 294 295 295 295 295 295 295 295 295 295 296 296 296 296 296 296 296 296 296 296 296 297 297 297 298 299 299 299 299 299 299 300 300 301 303 305 307 308 310 312 314 314 313 314 315 316 315 314 313 312 314 314 313 314 317 316 317 317 317 317 317 317 318 318
308 306 305 304 303 302 301 300 299 298 296 295 294 293 294 294 293 292 293 293 293 294 294 294 294 294 294 294 294 294 295 295 295 295 295 295 295 295 295 295 295 296 296 296 296 297 298 298 299 299 299 299 299 299 300 303 305 306 307 309 310 311 313 313 313 314 314 314 314 312 311 313 313 312 313 315 314 314 315 315 314 314 315 316 316
307 305 304 303 302 301 300 299 297 296 295 294 294 294 294 293 292 292 292 293 293 293 294 294 294 294 294 294 294 294 294 294 294 294 294 294 294 295 294 295 295 295 295 295 296 296 297 298 298 299 299 299 299 299 300 302 303 305 306 307 307 307 309 311 312 312 313 313 313 311 311 312 313 312 313 314 313 311 312 312 311 312 313 313 312
305 304 303 302 301 300 299 297 296 295 295 295 295 294 293 292 291 291 292 292 293 293 293 293 293 293 293 293 293 293 293 293 293 293 293 293 294 294 294 294 294 294 294 294 295 295 296 296 297 298 298 298 299 299 299 300 302 304 304 304 303 303 305 309 310 310 311 311 311 310 311 312 313 313 313 312 311 310 310 309 309 310 310 309 308
303 302 302 301 299 298 298 297 296 295 295 295 294 292 291 291 291 291 291 292 292 293 293 293 293 293 293 293 293 293 293 293 293 293 293 293 293 293 293 293 293 293 293 294 294 294 295 295 296 296 297 297 298 298 298 299 300 300 300 300 300 301 304 308 309 309 309 310 310 310 310 311 312 312 311 309 308 308 308 308 308 308 307 306 306
302 301 300 299 298 298 297 297 296 295 295 294 292 291 291 291 291 291 291 291 292 292 292 292 292 292 292 292 292 292 292 292 293 292 292 292 293 293 293 292 292 293 293 293 294 294 295 295 295 296 296 296 297 297 297 298 298 298 298 298 299 301 305 307 308 309 309 309 310 310 309 309 310 310 308 305 304 305 306 306 306 306 305 304 303
300 299 298 298 298 298 297 296 296 296 294 293 291 291 291 291 291 291 291 291 291 291 291 291 291 291 291 291 291 291 292 292 292 292 292 292 292 292 292 292 292 292 292 292 293 293 294 294 295 295 295 296 297 297 297 297 298 298 298 298 299 302 305 307 308 309 308 308 309 309 308 308 309 308 306 304 302 302 303 303 303 303 302 302 301
Wind_Speed
13 13 13 14 15 16 15 13 12 10 10 10 10 11 11 11 11 12 12 11 10 8 7 6 7 9 10 9 9 8 6 7 10 13 12 11 9 7 6 5 5 5 6 6 7 7 6 6 7 6 6 5 5 5 4 4 5 5 5 4 4 4 4 4 3 3 1 2 4 5 6 6 6 6 6 7 7 8 8 8 9 9 11 12 13
14 14 15 16 16 17 16 15 15 13 12 11 11 11 11 11 11 12 12 11 10 8 7 6 7 8 9 9 9 9 8 7 9 12 13 13 11 9 7 7 7 7 7 7 7 7 7 7 6 6 6 6 6 5 5 6 6 6 5 5 5 5 5 4 4 4 1 1 2 4 5 5 5 5 5 5 6 7 7 7 8 8 10 12 13
15 15 15 16 17 18 18 18 18 16 15 13 12 11 11 12 12 12 12 11 9 7 7 7 8 9 10 11 11 10 10 9 10 12 14 15 13 11 9 8 8 8 8 8 8 8 8 8 7 6 6 7 6 4 5 5 6 6 6 7 5 6 6 4 5 6 3 1 1 3 4 4 4 4 4 4 5 6 6 6 7 8 9 11 13
16 16 15 16 17 18 19 20 19 18 17 15 13 12 12 12 12 12 11 11 11 11 10 11 11 12 12 13 14 13 12 11 11 13 14 15 15 13 11 10 9 10 10 10 9 9 9 9 8 7 7 7 5 4 5 4 5 5 7 8 6 7 6 5 5 7 4 3 1 1 3 3 3 3 3 3 4 5 5 6 6 7 8 10 12
15 15 14 14 15 17 19 20 19 18 18 17 15 14 13 12 12 12 11 11 12 13 13 14 14 14 14 16 17 17 16 14 14 14 15 16 16 15 13 11 11 11 12 11 10 10 11 11 10 9 8 7 6 6 5 4 5 5 7 9 7 7 7 5 6 8 6 4 2 0 2 2 3 2 2 2 3 4 4 5 6 7 8 9 11
12 12 12 12 13 14 17 19 20 19 18 17 16 16 15 13 13 12 12 12 13 14 15 16 16 16 17 18 20 20 18 17 17 16 16 16 16 16 15 13 12 12 13 13 12 12 12 13 12 11 10 8 7 7 7 6 6 5 7 9 8 8 8 6 6 8 7 5 4 2 1 2 3 2 2 1 2 3 3 4 6 6 7 8 9
8 11 11 11 11 13 14 15 17 19 20 18 17 17 17 16 15 14 13 13 13 14 15 16 18 18 19 20 22 22 20 19 19 19 17 18 18 18 17 15 14 14 14 14 13 13 13 14 15 13 11 9 9 9 8 8 7 7 7 8 9 10 9 8 6 8 8 6 5 3 2 3 3 3 2 1 0 2 3 4 5 6 7 8 9
5 7 9 10 12 13 10 9 12 17 20 20 19 18 18 17 17 16 15 14 13 13 14 15 17 17 18 20 23 23 22 20 20 20 19 19 19 19 18 17 16 15 16 16 15 14 14 15 16 15 13 11 11 11 9 10 9 8 8 7 9 10 10 10 7 8 9 8 7 5 3 3 4 4 3 2 1 1 2 3 4 5 6 7 8
5 6 6 6 8 8 6 9 12 12 14 19 21 21 19 18 18 17 16 14 12 12 12 12 14 14 16 19 23 24 24 22 20 19 19 20 21 20 20 18 18 17 18 17 17 16 15 15 17 17 15 14 14 13 11 12 11 10 11 9 9 10 11 11 9 9 10 9 8 6 5 4 4 5 4 3 2 2 2 3 4 4 5 6 7
3 4 4 4 5 4 4 9 10 10 12 16 19 19 19 20 19 17 16 15 13 12 11 9 9 10 15 20 21 23 23 23 21 20 20 21 21 22 20 19 19 19 19 19 19 18 17 17 18 18 17 16 16 15 13 13 12 11 12 12 10 11 12 12 10 10 11 10 9 8 7 6 5 6 5 4 3 2 3 3 4 4 5 5 6
1 1 2 2 3 4 6 9 7 9 13 14 14 14 15 17 17 14 14 14 12 13 11 8 6 6 11 16 17 18 19 20 21 20 20 21 22 23 21 20 20 21 21 20 20 20 19 19 19 19 19 18 18 18 16 14 13 13 13 13 12 12 13 14 12 12 13 11 9 9 9 7 6 6 6 5 4 4 4 4 4 4 4 4 5
1 1 3 3 4 4 2 7 7 6 10 9 7 9 12 13 12 10 14 16 14 14 11 8 7 5 6 10 13 14 15 17 18 18 19 21 23 24 23 21 21 22 22 22 22 22 21 21 21 20 19 19 19 19 19 17 15 15 14 14 14 13 14 15 14 13 14 14 10 10 11 9 7 7 7 7 6 5 5 5 5 4 4 4 4
2 1 2 2 4 4 3 1 2 3 4 3 2 4 8 7 6 6 10 14 14 14 12 11 10 7 6 6 10 12 13 14 15 17 18 21 24 25 25 23 23 23 23 23 24 24 24 23 22 22 21 21 20 20 20 20 18 17 16 15 14 14 15 16 15 15 15 15 13 11 13 11 9 8 8 8 7 6 6 6 5 5 4 4 4
2 1 1 2 3 3 4 4 5 6 5 7 8 4 3 4 2 2 5 6 9 11 11 10 8 5 4 5 6 9 12 14 15 16 18 21 25 27 26 25 25 24 24 24 25 26 26 25 25 24 24 23 21 21 21 21 20 19 18 17 15 14 15 16 16 16 17 16 15 13 13 13 11 9 9 10 9 8 8 7 6 6 5 4 4
1 2 2 3 3 4 4 5 6 7 7 9 10 9 10 12 8 2 3 3 4 6 7 8 7 3 2 3 3 3 6 10 13 16 18 21 25 27 27 27 26 25 24 25 26 27 27 27 27 27 26 25 24 23 22 22 22 20 19 19 17 15 16 17 18 18 18 18 16 15 14 13 12 11 10 11 10 9 9 8 7 7 6 5 4
2 2 4 4 4 5 5 6 6 5 5 7 9 11 12 12 10 6 6 7 5 4 5 5 6 4 1 1 1 1 2 4 6 12 16 20 25 28 28 27 27 25 25 25 26 26 26 27 28 29 29 28 26 25 24 23 22 22 21 20 19 17 16 17 18 19 20 20 18 17 16 14 13 12 12 11 12 10 10 9 8 8 7 6 5
4 3 4 4 5 5 5 5 5 4 3 5 7 8 10 11 11 8 8 8 7 6 8 10 8 5 2 2 1 1 2 3 6 6 9 14 19 24 27 27 26 25 25 26 26 25 25 26 27 29 30 30 29 28 27 25 24 23 22 21 20 19 16 15 17 18 20 21 20 18 18 16 14 13 13 12 12 11 11 10 10 9 8 7 6
4 4 3 3 3 3 2 2 3 3 2 3 4 6 6 8 9 9 10 9 8 7 9 11 9 6 5 3 4 4 4 5 5 3 5 8 10 14 19 22 24 25 26 27 27 26 26 26 27 28 28 30 30 30 29 28 27 25 24 23 21 20 18 15 15 16 18 21 21 19 19 18 16 15 14 14 13 12 12 12 11 10 9 8 7
3 3 3 3 2 2 1 1 0 2 1 1 2 5 6 6 7 8 9 10 10 10 9 9 8 7 8 7 7 8 8 7 4 2 4 6 8 10 11 12 14 17 21 25 26 27 27 27 27 27 27 28 29 30 31 31 29 27 26 24 23 22 20 18 16 16 18 21 22 21 20 20 18 16 16 15 14 13 13 13 13 12 11 10 9
5 4 3 2 2 1 0 0 1 2 2 2 2 3 4 5 5 6 7 9 10 10 9 10 9 9 9 9 9 10 10 9 8 6 3 4 8 12 15 14 13 14 15 17 21 23 25 27 28 28 28 28 29 29 30 31 31 30 28 27 25 24 23 21 19 18 17 20 22 22 22 21 19 17 17 16 16 15 14 14 14 13 12 11 10
4 4 5 5 4 4 4 4 5 5 5 4 4 3 4 4 5 5 7 8 9 8 8 9 9 9 9 9 8 10 10 10 9 8 6 5 5 6 11 16 17 19 18 15 15 17 20 23 26 28 29 30 30 29 30 30 31 31 30 29 28 26 25 24 22 20 19 19 22 23 22 22 21 19 17 17 16 16 15 15 15 15 14 13 12
3 3 4 4 5 5 5 5 5 6 5 6 6 6 6 6 7 7 8 8 8 8 7 8 8 8 8 9 9 10 8 7 7 8 7 7 6 4 7 9 11 19 23 20 18 19 20 21 22 25 28 30 31 31 31 31 31 32 31 31 30 29 27 26 25 23 21 21 23 24 24 23 23 21 19 18 17 16 16 15 16 16 15 15 13
4 3 2 2 2 2 2 3 5 6 7 8 8 8 8 8 9 9 9 9 9 8 8 7 8 8 8 8 9 9 7 6 9 12 9 6 6 5 7 10 10 16 22 23 23 24 24 24 23 24 25 28 31 32 32 32 32 33 32 31 32 31 29 28 27 26 24 23 24 26 26 24 24 24 22 20 18 17 16 16 16 17 16 16 14
5 4 3 2 1 1 2 3 5 7 8 9 9 9 10 10 10 10 10 10 10 9 9 8 9 9 9 8 9 8 8 9 11 13 12 12 10 6 7 12 10 13 19 21 22 23 23 22 22 23 23 25 28 30 33 34 34 34 33 32 33 33 31 29 29 28 27 26 26 27 27 25 25 25 24 22 20 19 18 17 17 18 18 16 15
7 6 4 3 2 3 4 5 5 7 8 9 10 12 11 10 10 10 11 11 11 11 10 10 10 10 9 9 9 9 10 10 11 12 13 15 13 8 10 13 9 12 18 18 18 21 23 23 23 23 23 24 25 27 31 34 35 35 34 34 34 34 33 31 30 30 29 29 28 29 29 28 27 26 25 24 21 20 20 20 19 19 19 18 17
8 6 5 4 4 5 6 5 6 7 8 10 11 11 11 10 10 11 11 11 11 11 11 11 11 11 11 10 11 11 11 11 11 12 13 14 14 11 11 12 11 13 14 15 17 17 19 22 21 21 22 23 23 24 26 30 33 34 33 34 34 35 34 32 31 31 31 31 30 30 31 31 30 29 28 26 24 23 23 23 22 21 21 21 19
9 7 6 6 7 7 7 7 7 7 9 10 10 10 10 10 10 10 10 10 10 10 11 11 11 12 12 12 12 11 12 12 11 11 11 11 13 14 13 10 8 8 8 11 15 15 19 22 21 20 21 22 21 20 21 24 27 28 30 32 34 34 34 33 33 32 32 32 32 32 32 33 33 33 32 29 27 26 25 25 24 23 22 22 22
9 9 9 9 8 8 8 7 7 8 10 10 9 10 11 11 11 10 9 8 9 9 10 10 10 11 12 13 13 12 12 12 12 11 11 11 11 13 13 11 8 6 5 6 7 10 16 19 18 19 20 21 24 23 22 22 22 21 24 29 32 33 33 33 33 33 33 33 33 33 33 35 34 35 35 32 30 29 28 27 25 24 23 24 24
11 11 11 10 10 9 8 8 9 10 10 9 9 10 12 12 12 12 10 9 9 9 10 10 11 12 12 13 12 12 12 12 12 11 11 11 11 11 12 12 11 8 6 6 5 6 11 13 15 18 18 18 21 24 24 23 23 22 22 25 28 30 30 30 31 33 34 34 34 34 34 35 36 36 37 35 33 32 30 29 27 24 24 25 25
14 13 12 11 11 10 9 10 11 11 11 9 10 11 12 12 12 12 12 11 11 11 11 12 12 13 13 12 12 12 13 13 13 12 12 12 12 12 12 12 12 11 9 8 8 9 13 15 16 18 19 19 19 21 23 22 22 22 21 22 24 26 27 28 29 31 33 34 35 35 35 36 37 38 38 38 36 34 33 31 29 25 24 25 26
16 15 14 13 12 11 11 10 11 11 10 10 11 12 13 13 13 12 13 13 13 13 12 13 13 14 14 13 13 13 13 13 13 12 12 12 12 13 13 13 13 13 13 11 9 11 15 15 16 19 22 22 21 22 23 21 20 20 21 22 24 26 27 28 29 30 31 33 35 36 35 36 38 39 39 40 39 36 35 34 31 27 25 25 26
19 18 17 15 14 12 10 10 10 9 9 10 11 13 13 13 13 13 14 14 14 14 15 15 14 14 15 15 15 15 15 14 14 12 12 12 12 13 13 14 13 12 14 14 9 11 18 18 19 23 25 25 25 23 24 25 24 23 23 23 24 25 27 29 30 31 32 33 35 37 37 37 39 40 40 41 41 39 38 36 33 29 27 27 27
21 20 18 16 14 11 9 9 9 8 9 11 12 13 13 13 13 14 14 14 15 16 16 16 16 15 16 17 18 17 17 16 15 13 13 13 13 14 14 14 14 12 13 14 11 11 18 21 19 20 22 22 25 24 24 26 27 26 25 24 24 25 26 28 29 31 32 33 35 37 38 37 39 41 41 42 42 41 39 38 35 32 30 29 29
22 21 19 16 12 10 9 8 7 8 10 11 11 12 12 12 12 12 13 14 15 16 17 17 17 17 18 19 20 19 18 17 16 15 15 14 14 16 16 15 15 14 12 14 14 11 16 20 20 20 20 20 22 23 24 27 29 27 27 26 26 26 27 28 29 30 30 32 34 37 39 39 39 41 42 43 43 42 40 40 38 34 31 31 31
23 20 17 14 11 9 8 8 7 9 10 10 10 10 10 11 11 11 12 13 15 16 17 18 18 19 19 20 20 20 19 18 18 18 17 16 16 16 17 15 15 14 12 13 14 13 14 18 18 18 18 18 19 21 24 28 30 28 27 27 26 26 27 28 29 30 30 31 34 36 39 40 41 42 43 44 45 44 42 41 40 36 33 32 32
22 19 15 13 11 9 9 8 8 9 9 8 9 10 10 11 11 12 13 14 15 16 17 17 18 19 19 19 20 20 20 19 21 21 19 18 18 17 16 16 15 15 14 12 13 14 15 17 18 18 18 18 19 19 21 25 29 29 28 28 27 27 28 27 28 30 30 31 33 35 38 41 43 44 44 45 46 46 43 41 41 38 35 35 34
20 17 15 13 11 10 9 9 9 8 7 8 9 10 11 12 13 14 15 16 17 18 19 19 18 18 19 20 21 21 21 21 21 21 20 19 19 18 17 17 16 17 17 15 15 16 16 17 21 22 20 20 22 21 19 20 24 28 28 28 28 28 28 28 28 30 31 31 33 34 34 38 44 46 46 46 47 47 45 42 42 40 38 37 36
18 16 15 13 11 10 9 9 8 7 7 8 9 10 11 12 13 14 15 17 18 19 20 21 20 19 19 19 20 20 20 21 21 21 21 21 20 19 18 18 17 16 17 17 17 17 16 18 21 23 22 20 21 23 20 19 21 25 27 28 28 28 28 28 29 30 31 32 34 34 32 34 41 46 47 47 47 47 46 44 43 42 41 40 38
17 16 14 12 11 10 9 8 6 7 7 7 8 9 10 11 13 14 16 17 18 19 20 21 21 21 21 21 20 20 20 20 21 21 21 21 20 20 19 18 17 16 17 18 19 17 16 17 20 22 22 19 18 22 24 20 20 21 23 24 26 27 28 28 30 31 31 32 32 33 31 30 36 43 47 47 47 47 46 46 45 43 42 41 39
16 15 13 12 11 9 7 6 5 6 6 6 7 8 10 11 13 14 16 17 19 20 20 21 21 21 22 23 23 23 23 22 22 22 22 21 21 22 21 20 20 21 20 20 20 19 18 18 19 21 22 20 17 19 23 22 17 17 19 21 23 26 28 28 29 30 30 30 30 31 30 29 32 40 45 46 47 47 47 46 47 46 43 41 40
15 14 13 12 10 8 6 5 4 4 5 6 7 8 10 12 14 15 17 18 20 21 22 22 22 22 22 23 24 24 24 24 23 23 23 23 24 25 25 24 24 24 24 22 21 20 19 18 18 20 20 19 17 16 19 19 16 16 19 20 21 26 27 25 26 28 28 28 28 28 29 30 32 37 41 45 47 48 47 47 48 48 45 41 40
15 14 13 12 9 7 5 4 4 5 5 6 7 9 11 14 16 18 19 20 21 21 23 23 24 24 23 24 24 24 24 24 24 24 25 25 26 27 27 28 27 26 26 24 23 21 20 18 18 19 18 18 18 16 17 20 20 20 21 20 19 22 20 17 20 25 27 28 27 27 30 30 30 33 38 44 47 47 47 49 50 49 46 42 40
15 15 13 11 9 7 5 5 5 5 5 6 9 12 14 16 17 19 20 22 22 22 23 23 24 24 24 24 24 24 25 25 25 26 26 27 27 27 28 28 28 28 27 26 25 23 21 20 20 20 19 19 20 19 19 20 21 21 21 20 19 19 15 12 12 17 23 27 28 27 29 30 30 32 37 42 45 45 47 50 51 49 47 44 41
16 14 13 11 9 7 6 6 6 5 6 9 12 14 15 17 18 19 20 22 23 24 25 25 26 26 26 26 26 26 26 26 27 27 27 28 28 28 29 29 29 29 29 29 29 27 24 22 22 22 22 22 23 23 20 20 21 22 22 20 19 18 17 15 13 15 20 22 24 25 26 27 29 31 36 40 42 43 45 47 49 48 47 45 43
15 14 13 11 9 7 7 6 4 5 8 11 13 15 16 18 20 21 22 22 24 26 27 28 28 27 27 28 28 28 27 26 26 27 27 28 29 29 30 30 30 30 30 31 31 31 30 28 26 26 26 24 24 26 23 19 20 21 21 20 19 19 19 19 19 21 20 17 18 21 21 24 26 27 32 36 37 39 42 42 44 46 45 45 44
15 14 13 11 9 7 6 4 4 7 10 12 14 15 16 19 22 23 24 25 26 27 28 28 28 28 28 28 29 29 28 27 27 26 27 28 28 29 30 30 30 30 30 30 30 30 32 33 32 32 32 29 28 28 25 21 20 21 21 20 19 19 21 22 24 25 23 20 18 16 16 21 24 24 28 33 32 34 38 38 39 40 41 43 43
16 15 13 10 8 6 5 4 5 8 10 13 14 15 17 20 23 25 26 28 29 29 29 29 29 29 29 29 30 30 29 29 28 27 27 27 28 29 30 30 30 30 31 30 29 29 30 32 33 35 35 33 32 30 28 25 23 23 21 20 20 21 22 24 24 25 25 25 21 15 13 18 22 22 26 30 29 29 32 33 34 36 39 40 40
16 14 12 9 7 5 4 4 6 8 10 12 13 15 18 22 25 26 28 29 30 29 29 29 29 30 29 29 30 31 31 30 29 27 27 27 28 30 30 31 31 31 33 32 30 31 31 32 33 34 34 34 33 32 30 28 25 24 24 25 26 25 22 20 21 22 24 24 22 20 16 17 20 23 24 26 26 27 29 30 30 32 35 36 36
15 13 10 7 5 4 5 5 5 8 10 12 14 17 21 24 26 27 29 29 29 29 29 29 29 29 29 29 29 30 31 30 29 28 27 27 29 30 30 30 30 31 33 32 31 31 32 32 34 35 35 36 35 35 35 34 32 30 29 30 29 24 19 15 14 17 22 24 24 23 21 18 21 22 21 20 22 24 27 28 29 29 30 31 32
13 10 7 5 4 5 5 5 6 9 11 12 15 20 24 26 27 28 29 29 29 29 29 29 29 28 28 28 27 28 30 30 29 28 27 27 29 30 29 30 31 32 32 31 31 31 31 31 32 32 33 35 36 37 37 37 36 33 31 32 29 24 21 17 14 16 20 24 27 26 21 18 20 21 18 14 15 20 24 26 27 27 27 27 28
9 7 5 4 5 6 5 5 7 10 12 14 18 23 26 28 28 28 28 28 29 29 29 29 28 28 27 28 27 28 29 30 30 30 30 30 32 32 30 30 32 33 32 31 33 33 32 31 32 32 33 33 34 36 37 36 35 33 34 36 34 28 24 22 20 16 12 17 27 29 24 20 21 22 20 12 6 12 20 23 24 25 25 25 26
Wind_Direction
214 218 220 219 218 217 209 201 197 199 197 191 186 178 177 186 197 201 201 204 206 210 217 209 187 170 171 181 188 196 202 207 211 211 215 215 211 216 217 221 227 227 230 223 219 227 233 221 204 206 217 210 203 224 212 203 206 174 196 227 178 175 140 137 235 232 142 80 66 47 40 37 35 37 44 54 60 63 64 66 71 77 82 84 83
220 222 221 224 226 222 216 209 201 200 202 199 193 185 180 183 193 201 204 209 211 215 227 228 210 192 190 196 204 213 216 221 222 217 217 217 216 220 222 226 228 230 234 233 231 229 231 230 228 217 206 218 232 240 219 205 211 180 188 236 208 183 157 147 228 239 218 126 72 45 37 31 30 34 39 52 59 64 66 66 71 77 83 87 87
225 226 224 225 226 221 215 210 207 205 204 204 201 195 190 192 198 206 212 218 223 232 245 253 243 225 217 210 212 220 223 225 224 218 218 218 219 222 226 230 226 229 233 237 237 231 230 231 236 227 211 235 251 241 230 220 224 192 186 237 223 180 165 157 218 242 244 218 90 39 31 22 19 31 35 48 61 65 68 68 73 81 88 91 92
228 228 228 224 220 218 215 211 210 210 206 205 209 208 202 202 207 216 227 232 240 249 258 269 265 251 241 228 222 221 219 220 219 217 217 218 221 222 227 233 228 226 230 235 236 229 229 228 226 224 224 242 238 220 239 245 244 210 191 227 226 180 172 165 218 245 255 245 215 28 13 10 3 19 30 40 59 67 70 72 77 85 95 99 99
229 229 226 221 217 216 218 216 214 213 210 207 209 214 213 213 216 223 236 243 247 251 259 268 267 258 248 237 229 222 220 221 217 217 219 219 222 223 226 234 232 226 227 231 233 229 228 229 229 232 233 237 229 218 229 239 255 243 204 216 217 190 181 174 222 246 255 253 236 320 342 346 344 355 17 29 57 70 74 78 85 92 100 106 106
227 227 223 220 216 213 216 218 216 214 215 213 213 219 219 219 222 228 238 246 252 254 260 266 267 264 254 241 231 223 223 226 221 221 225 223 223 224 226 231 232 231 229 228 229 230 229 231 234 241 244 239 233 227 229 236 249 252 222 214 212 202 191 183 217 245 254 255 242 238 299 312 320 324 342 7 59 75 86 87 93 97 99 106 108
229 231 231 226 218 216 215 217 219 217 218 217 217 223 224 224 228 233 240 244 251 256 260 266 269 267 258 242 230 222 224 229 225 223 228 228 226 227 229 229 230 232 233 230 228 228 229 231 233 240 245 239 238 239 239 245 251 248 231 220 217 209 198 194 211 238 250 260 248 231 258 285 298 296 302 314 56 92 102 101 103 104 100 102 106
254 245 243 237 231 228 216 210 221 224 225 223 222 226 228 229 230 233 240 246 252 257 260 270 272 265 255 240 228 223 225 228 227 226 229 231 230 231 232 231 231 233 235 235 231 229 229 230 233 239 241 236 239 248 242 237 247 247 236 236 232 220 207 200 208 228 242 264 256 225 229 262 280 281 278 275 233 143 126 119 117 114 109 107 106
262 257 257 262 256 248 219 208 217 224 228 227 228 233 233 234 236 234 239 250 258 262 265 273 275 264 249 238 229 227 227 227 228 231 233 234 235 235 236 235 234 235 236 237 236 233 232 231 233 237 240 237 238 248 245 234 240 240 233 244 248 233 216 201 203 222 233 256 256 225 214 238 265 272 266 259 235 190 158 141 133 128 121 116 111
246 262 275 293 305 319 263 234 228 229 231 229 229 233 235 238 243 243 244 252 258 264 269 275 282 266 245 237 232 229 227 227 230 234 236 237 239 238 239 240 238 238 238 238 239 237 235 234 234 235 238 239 239 244 248 239 237 234 228 238 251 245 226 203 197 218 226 241 252 234 216 224 252 265 261 253 236 211 186 161 150 142 132 124 119
113 51 13 319 337 348 277 261 254 237 235 239 237 238 243 242 244 250 250 253 258 260 263 274 291 278 243 233 231 228 225 227 232 236 238 239 241 241 241 243 243 242 240 240 240 239 237 236 235 235 236 239 240 241 246 244 238 234 227 230 243 245 232 211 198 213 222 226 242 242 227 225 243 256 259 254 239 221 205 179 165 157 146 133 123
155 87 56 62 59 56 266 259 267 262 249 254 252 240 245 240 241 260 255 249 255 254 255 276 293 294 258 234 230 231 231 234 235 237 240 240 240 239 238 243 246 246 245 242 241 241 240 238 236 236 238 238 239 240 243 245 241 238 234 231 235 237 233 220 207 213 222 219 227 243 239 231 234 248 255 253 242 225 211 195 180 173 164 146 131
184 148 108 90 81 83 75 304 304 330 286 296 357 239 243 239 239 268 258 249 254 251 252 280 295 298 296 263 241 238 238 239 238 238 241 242 239 237 237 241 244 246 247 246 244 244 243 241 239 238 239 239 239 240 240 243 243 242 240 235 232 232 234 230 220 220 225 220 218 236 247 241 232 240 251 249 242 226 214 209 197 189 181 161 146
179 143 134 114 99 97 81 64 63 62 55 51 54 55 32 41 41 276 260 256 256 249 248 266 279 286 313 313 278 253 245 243 243 242 241 240 238 238 240 241 243 246 248 247 247 248 247 245 243 241 241 241 240 241 240 240 241 242 242 239 234 230 234 235 230 228 231 224 215 223 242 246 239 235 244 247 239 225 221 220 209 199 193 178 166
148 94 102 108 101 98 97 89 75 65 58 57 58 54 53 57 60 32 320 328 284 264 260 258 260 270 307 303 298 286 260 250 247 246 244 241 237 238 243 245 246 247 247 248 249 250 250 249 247 245 244 244 243 242 242 241 242 242 242 241 237 232 233 235 234 233 236 230 217 219 233 241 242 238 238 246 240 223 223 228 218 207 203 194 184
194 121 110 107 108 109 109 107 89 70 52 51 53 48 49 56 59 45 11 6 350 339 337 310 294 297 293 252 308 2 273 280 273 255 249 244 238 237 242 246 250 250 249 249 251 252 253 251 250 250 248 246 245 244 244 244 244 244 242 242 240 236 236 238 235 233 238 237 224 220 231 234 236 241 238 241 243 228 224 232 225 214 210 203 195
184 150 135 120 118 122 116 107 94 78 47 40 48 47 43 46 50 42 26 16 2 358 3 3 352 326 293 250 296 281 243 339 342 282 258 252 244 240 241 245 249 252 253 253 254 254 253 253 253 253 252 250 248 247 246 245 244 244 243 241 238 236 236 241 240 233 236 242 233 220 227 232 228 236 240 237 239 229 224 234 232 220 213 208 203
166 162 159 149 142 143 131 100 83 73 44 22 35 41 37 38 41 38 34 31 25 22 11 9 13 7 353 312 286 277 280 328 344 314 295 281 259 247 246 249 254 255 256 257 257 256 255 254 255 256 256 253 251 250 248 247 245 244 244 242 237 234 233 236 240 236 232 240 242 230 226 230 227 230 238 239 236 227 224 235 235 225 216 212 208
128 154 178 192 201 212 228 252 37 76 67 358 15 33 36 36 34 32 32 31 35 41 28 15 18 14 6 353 328 312 294 287 270 277 317 300 285 281 270 264 266 265 262 261 261 261 260 258 258 258 258 255 254 253 251 249 247 245 245 245 240 234 233 234 236 236 231 233 242 242 230 226 227 228 232 237 238 229 226 235 237 228 219 215 212
102 101 125 158 187 203 174 89 84 83 78 68 32 18 21 25 23 21 20 22 29 38 36 31 27 10 357 355 345 331 314 295 276 268 275 284 292 292 286 285 287 284 279 275 272 268 267 266 264 261 259 258 256 255 254 252 249 247 247 247 243 237 234 234 234 235 233 229 234 241 236 225 224 226 226 231 237 233 227 233 237 231 222 218 215
120 103 104 112 114 99 81 74 72 71 71 70 60 38 22 18 16 12 10 16 21 24 27 29 30 20 7 360 350 339 330 319 306 287 271 278 288 289 293 300 297 288 285 286 283 279 276 274 272 267 264 262 261 259 258 255 252 250 250 249 246 242 236 234 234 234 233 230 228 233 236 229 224 221 219 220 227 232 228 228 235 233 225 221 218
151 134 123 117 110 96 81 70 56 49 49 47 43 34 26 19 13 7 3 6 6 4 10 12 15 19 15 11 7 360 343 327 324 312 288 273 274 279 294 302 299 290 290 290 286 286 286 284 282 276 269 265 263 262 260 258 256 254 254 254 250 246 241 236 235 234 233 230 227 228 232 231 224 218 217 215 213 221 223 221 229 233 227 224 223
177 174 167 149 128 105 73 49 28 17 13 15 16 13 8 0 355 352 349 353 354 351 350 348 352 0 6 11 12 6 352 333 330 325 314 290 282 288 289 286 281 283 290 294 293 291 288 285 285 281 276 272 267 264 263 261 260 259 259 258 255 250 245 240 236 234 233 230 227 228 230 230 225 218 217 216 209 212 217 215 221 229 227 224 224
203 204 209 216 216 287 327 344 354 359 358 359 359 355 352 349 348 350 351 353 352 352 351 347 347 349 352 356 356 353 346 337 335 330 325 315 306 295 293 297 284 276 287 294 294 291 287 285 282 280 280 279 273 268 265 262 261 262 261 260 258 254 250 246 241 236 233 231 228 228 229 229 227 220 218 217 211 208 211 212 215 223 226 222 221
224 221 220 236 254 278 300 313 327 339 345 346 344 343 348 355 358 359 360 360 358 358 359 356 354 350 343 336 332 335 336 335 335 332 328 326 322 314 307 306 292 283 292 293 289 289 288 285 282 279 278 278 277 272 267 263 262 262 262 261 260 257 254 251 246 240 235 232 229 228 228 228 226 222 220 217 214 210 210 212 214 220 225 222 218
238 235 231 241 255 267 278 288 304 321 332 334 333 339 348 353 354 355 357 358 359 359 357 355 353 350 344 334 325 323 325 328 330 329 330 329 325 322 319 313 296 286 289 286 283 284 285 286 286 281 277 277 277 274 268 265 264 265 265 264 262 259 257 255 251 246 239 233 230 228 228 228 226 224 223 221 218 218 218 219 219 221 225 224 221
240 241 240 247 257 260 261 268 287 306 319 322 326 339 344 343 341 342 344 345 348 351 352 351 350 348 347 342 333 326 321 321 321 322 326 327 322 319 319 315 302 291 286 283 277 271 276 283 286 282 277 275 275 274 272 265 262 265 268 267 265 263 261 259 256 250 243 236 232 230 227 227 227 226 226 224 220 221 225 228 226 223 224 225 224
236 236 240 246 252 252 255 268 286 303 311 315 326 338 338 336 334 332 335 335 336 341 343 343 344 343 342 339 335 332 328 323 316 313 314 317 320 320 316 312 308 300 295 289 272 269 279 283 285 286 282 276 273 274 275 267 259 260 268 270 267 265 265 262 260 255 247 239 233 231 229 227 228 227 226 224 220 221 226 230 231 227 225 224 226
235 234 237 241 244 250 263 278 292 304 310 317 329 334 333 333 332 330 332 329 327 331 333 333 335 335 335 333 330 330 330 327 319 312 308 307 309 313 313 311 310 305 298 293 277 275 286 287 286 289 289 282 278 278 278 273 267 264 268 272 269 268 268 266 264 260 252 243 235 232 231 228 228 228 226 223 221 222 225 230 233 232 228 225 225
234 233 234 237 242 252 269 283 295 303 310 317 325 326 327 329 330 328 327 324 323 324 325 326 329 330 331 329 325 324 326 326 321 314 309 305 303 304 306 308 309 305 300 296 287 281 284 282 278 284 292 291 287 286 284 280 277 275 274 275 273 272 272 271 269 264 256 248 239 234 232 230 228 228 226 224 223 224 226 229 232 233 233 230 226
231 231 233 236 243 255 269 283 295 301 306 313 317 319 322 324 324 324 322 318 316 317 320 323 326 328 328 327 325 324 324 323 320 318 317 313 310 307 306 306 309 308 304 299 290 287 287 282 278 284 291 293 290 286 282 277 278 279 279 278 277 276 272 269 269 266 260 253 242 235 233 231 229 228 227 225 225 226 226 228 230 233 236 235 228
226 228 231 237 244 254 268 282 291 296 302 307 309 312 316 318 318 317 316 314 312 314 319 322 324 325 326 326 325 323 323 323 321 322 323 321 319 315 312 310 310 311 309 301 293 291 293 293 293 291 291 292 291 285 277 273 274 274 273 274 277 278 273 268 266 265 262 257 246 238 235 232 230 229 228 226 226 226 226 227 229 233 237 237 232
222 222 226 233 239 248 264 278 286 292 296 299 302 306 310 312 314 315 314 313 313 315 319 320 322 322 323 323 322 321 321 319 319 321 320 318 318 315 314 314 310 310 311 304 298 295 294 297 301 301 301 298 290 282 275 274 276 275 271 269 270 273 273 271 269 266 263 258 249 240 236 235 232 230 228 227 227 226 226 226 227 232 237 237 233
218 218 222 225 228 238 255 266 274 283 288 291 294 299 302 306 311 314 316 316 315 317 317 317 318 318 318 318 318 319 318 315 314 316 315 312 314 314 313 314 310 307 308 303 299 296 295 297 300 304 309 304 290 282 277 276 279 279 275 271 269 267 269 271 271 269 266 260 252 244 239 237 235 232 229 228 227 226 227 226 226 229 234 235 234
213 214 216 215 216 228 240 247 258 270 277 280 284 289 294 300 307 309 313 314 315 317 317 316 315 313 312 313 314 315 314 311 310 310 310 308 308 309 308 310 309 304 306 305 301 302 302 301 303 307 311 312 302 294 287 281 279 279 277 275 272 268 266 267 269 270 268 263 257 249 242 238 236 234 231 228 227 227 227 227 226 228 231 234 234
209 209 208 208 212 221 227 234 246 256 262 268 277 286 292 299 304 306 308 309 309 311 312 313 314 310 307 307 310 311 308 305 305 305 305 304 305 305 303 303 304 302 304 304 301 308 311 304 303 304 306 310 308 306 303 291 280 275 275 275 273 269 265 264 266 268 268 266 261 254 246 240 237 234 231 229 227 227 227 226 225 226 229 233 233
206 205 203 204 210 217 223 232 239 244 255 268 278 288 295 300 303 304 305 305 305 305 305 306 307 306 303 303 304 304 302 300 300 300 300 301 301 300 296 296 295 295 298 298 299 304 305 299 297 297 298 301 301 302 310 308 293 281 276 274 271 267 264 261 261 263 264 265 262 258 250 242 237 233 231 230 228 227 227 226 225 226 228 231 232
204 203 202 204 210 216 222 228 237 249 264 277 286 292 297 299 301 301 301 302 302 303 303 303 302 300 300 300 299 298 297 296 295 295 296 297 296 295 294 293 292 292 292 296 300 300 296 294 294 294 293 295 296 294 298 312 311 292 277 271 268 264 262 260 259 259 260 261 262 261 254 244 238 233 230 229 229 228 228 226 225 226 228 230 231
203 202 203 206 210 214 219 227 246 266 276 284 290 293 297 299 301 302 303 303 303 302 302 301 299 297 296 296 295 293 292 291 291 292 292 292 291 290 290 290 290 290 290 291 294 294 294 294 293 292 292 291 291 289 289 302 315 300 276 264 263 264 262 260 259 258 256 257 259 260 256 248 241 235 230 229 229 229 228 227 226 227 228 229 230
203 205 207 208 208 209 218 237 259 269 276 282 287 294 302 306 308 308 307 306 304 302 300 298 297 296 295 295 294 292 291 288 286 286 286 287 288 286 285 285 287 288 288 287 286 284 286 288 288 290 293 291 288 287 287 294 307 301 282 268 262 264 264 262 261 259 256 254 255 255 252 246 241 236 230 228 228 228 228 228 228 228 229 230 230
203 207 209 209 207 210 223 243 252 255 262 275 292 306 313 316 316 313 310 306 303 300 298 296 296 294 294 294 293 293 292 289 285 284 282 282 283 283 282 283 284 285 285 284 281 279 278 279 280 284 289 289 288 288 286 287 290 293 295 289 274 267 265 262 260 258 256 254 253 252 251 246 240 234 229 226 227 226 225 226 227 227 228 229 229
203 205 207 208 211 219 228 234 235 242 257 280 305 317 322 321 318 313 309 305 301 298 297 296 295 293 293 292 292 291 290 287 285 284 283 283 282 281 280 280 279 280 280 278 277 276 274 272 271 275 280 282 283 284 281 281 283 286 293 297 289 277 268 258 257 258 255 253 250 249 249 246 239 232 227 227 227 225 223 224 226 226 226 226 227
201 204 208 211 216 221 224 227 234 246 271 300 315 321 323 323 321 317 311 306 302 298 297 296 295 295 294 292 291 290 287 286 284 283 283 284 283 282 280 278 276 275 274 274 273 272 271 269 267 268 268 272 277 279 279 281 283 283 286 290 290 284 271 253 254 260 258 252 246 244 247 245 236 230 228 228 228 226 225 226 226 225 224 224 225
200 205 210 214 216 219 225 231 240 262 295 313 320 323 326 329 331 327 318 310 305 301 298 297 296 296 294 292 290 287 285 284 283 282 281 281 281 281 280 278 276 273 271 270 270 269 267 266 267 265 262 266 272 272 273 278 281 282 285 285 284 281 270 256 249 258 264 258 243 238 244 245 237 229 228 229 229 228 228 227 227 226 224 224 225
200 206 210 214 216 221 227 231 250 294 316 320 321 325 327 331 333 329 321 315 308 303 300 297 295 294 292 290 288 285 283 281 279 279 278 279 280 280 279 278 276 274 271 268 267 267 265 264 264 263 262 262 265 267 268 271 275 279 280 279 279 277 268 260 257 258 265 266 245 233 239 244 239 231 229 232 231 231 231 230 228 226 225 225 225
199 205 208 212 216 220 227 241 288 319 325 322 322 325 325 325 327 324 319 313 307 303 300 297 294 292 289 288 285 283 282 280 278 277 277 278 279 278 277 277 275 274 273 270 267 266 265 262 260 261 263 261 261 265 265 264 269 276 278 278 278 276 269 267 267 263 261 264 254 237 234 242 240 233 233 235 234 234 235 234 230 227 226 225 224
200 205 207 209 212 217 234 272 308 324 329 326 323 322 319 321 323 321 316 311 305 301 298 295 293 291 289 287 285 283 282 280 278 277 276 276 276 276 275 275 274 274 272 269 267 265 263 261 260 260 262 262 261 263 263 262 264 265 267 273 278 283 281 273 266 259 255 257 252 233 230 243 240 236 238 239 238 237 237 237 233 229 228 227 224
195 198 199 203 210 226 254 285 310 323 327 325 320 317 319 323 324 321 315 309 303 298 295 293 291 290 289 286 284 283 281 279 278 277 276 275 275 274 274 274 275 275 272 270 268 265 263 262 261 261 262 263 262 262 262 260 257 256 265 275 279 284 285 271 256 249 247 248 242 226 225 240 240 237 240 241 238 237 238 237 234 231 229 226 224
187 189 192 199 220 253 269 286 309 319 320 319 318 320 325 328 325 320 314 308 302 297 294 292 291 289 288 286 284 282 280 279 279 278 277 276 273 271 272 274 275 274 273 273 272 268 265 265 264 263 263 263 263 263 262 261 260 262 269 274 273 273 270 259 248 243 240 240 235 224 220 231 238 234 232 235 237 237 238 239 236 232 229 227 226
181 183 189 205 241 262 269 283 305 312 312 316 324 328 330 330 326 320 314 308 302 298 295 293 291 290 288 287 284 281 279 278 278 278 277 275 272 270 271 274 275 272 272 275 275 272 270 268 267 265 264 263 262 261 261 261 261 261 259 259 261 260 254 247 243 242 240 238 233 223 215 224 233 226 216 218 233 237 237 239 237 233 229 227 226
171 179 196 228 250 255 261 281 297 305 311 320 330 333 333 332 328 321 315 308 302 299 297 296 294 291 289 288 285 282 280 279 278 277 276 274 271 271 271 273 273 271 271 273 273 273 272 270 267 266 265 264 262 259 258 257 257 257 255 254 253 249 244 240 237 235 240 238 231 222 215 219 225 217 205 196 218 239 236 235 235 233 229 226 222